Home > Weather > Belize City > Past weeks

Flag for Belize Weather for the Past 2 Weeks in Belize City, Belize

Now
72 °F

Rain. Mostly cloudy.


Feels Like: 67 °F
Forecast: N/A
Wind: 8 mph from Northwest

Location: Belize / Phillip Goldston Intl. Airport

Current Time: Feb 6, 2016 at 2:51:31 PM

Latest Report: Feb 6, 2016 at 2:00 PM


Visibility: 2 mi

Pressure: 30.08 "Hg

Humidity: 94%

Dew point: 70 °F

Location of Belize CityLocation

Historic Weather in Belize City — Graph

°F

Belize City Temperature Yesterday

Maximum temperature yesterday: 68 °F (at 5:00 AM)
Minimum temperature yesterday: 66 °F (at 10:00 AM)
Average temperature yesterday: 67 °F

High & Low Weather Summary for the Past Weeks

 TemperatureHumidityPressure
High88 °F (Feb 4, 1:00 PM)100% (Jan 25, 5:00 AM)30.23 "Hg (Jan 25, 5:00 AM)
Low61 °F (Jan 23, 6:00 AM)53% (Jan 23, 1:00 PM)29.79 "Hg (Feb 3, 2:00 PM)
Average76 °F81%30.00 "Hg
* Reported Jan 22 1:00 PM — Feb 6 1:00 PM, Belize City, Weather by CustomWeather, © 2016

Note: Actual official high and low records may vary slightly from our data, if they occured in-between our weather recording intervals... More about our weather records

Advertising

Belize City Weather History for the Previous 24 Hours

 ConditionsComfort  
Time TempWeatherWind HumidityBarometerVisibility
1:00 PM
Sat, Feb 6
70 °FRain. Partly sunny.8 mph94%30.09 "Hg2 mi
12:00 PM70 °FLight rain. Partly sunny.7 mph94%30.11 "HgN/A
11:00 AM68 °FBroken clouds.10 mph94%30.13 "HgN/A
10:00 AM68 °FLight rain. Partly sunny.14 mph94%30.13 "Hg4 mi
9:00 AM66 °FLight rain. Mostly cloudy.10 mph100%30.12 "Hg3 mi
8:00 AM66 °FLight rain. Partly sunny.6 mph94%30.10 "HgN/A
7:00 AM64 °FLight rain. Partly sunny.7 mph100%30.08 "HgN/A
6:00 AM64 °FLight rain. Partly cloudy.7 mph100%30.06 "Hg6 mi
5:00 AM64 °FLight rain. Passing clouds.8 mph100%30.04 "Hg6 mi
11:00 PM
Fri, Feb 5
66 °FPassing clouds.7 mph100%30.09 "Hg5 mi
10:00 PM66 °FPassing clouds.9 mph100%30.10 "Hg5 mi
9:00 PM66 °FPartly cloudy.6 mph100%30.10 "Hg5 mi
8:00 PM68 °FPartly cloudy.8 mph94%30.10 "Hg5 mi
7:00 PM68 °FPartly cloudy.7 mph94%30.09 "Hg3 mi
6:00 PM68 °FPassing clouds.8 mph94%30.08 "Hg3 mi
5:00 PM68 °FDrizzle. Partly sunny.6 mph94%30.08 "Hg3 mi
4:00 PM68 °FDrizzle. Mostly cloudy.8 mph94%30.07 "Hg3 mi
3:00 PM68 °FDrizzle. Partly sunny.10 mph94%30.08 "Hg2 mi
2:00 PM68 °FDrizzle. Partly sunny.8 mph94%30.09 "Hg3 mi
Weather by CustomWeather, © 2016

See weather overviewHow to use our weather pages